Time,TemperatureF,DewpointF,PressureIn,WindDirection,WindDirectionDegrees,WindSpeedMPH,WindSpeedGustMPH,Humidity,HourlyPrecipIn,Conditions,Clouds,dailyrainin,SoftwareType,DateUTC
2013-08-12 00:02:00,82.0,76.0,30.13,East,88,0.0,2.0,81,0.00,,,0.00,,2013-08-12 04:02:00,
2013-08-12 00:12:00,82.0,76.0,30.13,East,88,0.0,2.0,81,0.00,,,0.00,,2013-08-12 04:12:00,
2013-08-12 00:22:00,82.0,76.0,30.13,East,97,0.0,3.0,81,0.00,,,0.00,,2013-08-12 04:22:00,
2013-08-12 00:33:00,82.0,76.0,30.13,North,8,0.0,0.0,82,0.00,,,0.00,,2013-08-12 04:33:00,
2013-08-12 00:43:00,82.0,76.0,30.12,East,80,0.0,1.0,82,0.00,,,0.00,,2013-08-12 04:43:00,
2013-08-12 00:52:00,82.0,76.0,30.12,ENE,74,0.0,0.0,81,0.00,,,0.00,,2013-08-12 04:52:00,
2013-08-12 01:02:00,82.0,76.0,30.11,East,85,0.0,1.0,81,0.00,,,0.00,,2013-08-12 05:02:00,
2013-08-12 01:11:00,82.0,76.0,30.11,East,84,0.0,0.0,81,0.00,,,0.00,,2013-08-12 05:11:00,
2013-08-12 01:22:00,82.0,76.0,30.11,East,84,0.0,0.0,81,0.00,,,0.00,,2013-08-12 05:22:00,
2013-08-12 01:32:00,82.0,76.0,30.11,ENE,72,0.0,1.0,81,0.00,,,0.00,,2013-08-12 05:32:00,
2013-08-12 01:43:00,82.0,76.0,30.11,East,85,0.0,1.0,81,0.00,,,0.00,,2013-08-12 05:43:00,
2013-08-12 01:52:00,82.0,75.0,30.10,ENE,74,0.0,2.0,80,0.00,,,0.00,,2013-08-12 05:52:00,
2013-08-12 02:02:00,82.0,75.0,30.11,East,82,0.0,2.0,80,0.00,,,0.00,,2013-08-12 06:02:00,
2013-08-12 02:11:00,82.0,76.0,30.11,NE,46,0.0,1.0,81,0.00,,,0.00,,2013-08-12 06:11:00,
2013-08-12 02:22:00,82.0,76.0,30.11,ENE,76,0.0,1.0,81,0.00,,,0.00,,2013-08-12 06:22:00,
2013-08-12 02:32:00,81.0,75.0,30.10,NE,44,0.0,1.0,81,0.00,,,0.00,,2013-08-12 06:32:00,
2013-08-12 02:42:00,81.0,75.0,30.10,NE,53,0.0,2.0,81,0.00,,,0.00,,2013-08-12 06:42:00,
2013-08-12 02:52:00,81.0,75.0,30.10,NNE,22,0.0,1.0,82,0.00,,,0.00,,2013-08-12 06:52:00,
2013-08-12 03:01:00,81.0,75.0,30.09,NNE,30,0.0,1.0,82,0.00,,,0.00,,2013-08-12 07:01:00,
2013-08-12 03:12:00,81.0,75.0,30.09,NNE,32,0.0,2.0,82,0.00,,,0.00,,2013-08-12 07:12:00,
2013-08-12 03:22:00,81.0,75.0,30.09,NNE,32,0.0,0.0,83,0.00,,,0.00,,2013-08-12 07:22:00,
2013-08-12 03:33:00,80.0,74.0,30.09,NE,36,0.0,0.0,83,0.00,,,0.00,,2013-08-12 07:33:00,
2013-08-12 03:43:00,80.0,75.0,30.09,NE,36,0.0,1.0,84,0.00,,,0.00,,2013-08-12 07:43:00,
2013-08-12 03:52:00,80.0,75.0,30.09,NE,36,0.0,0.0,84,0.00,,,0.00,,2013-08-12 07:52:00,
2013-08-12 04:02:00,80.0,75.0,30.09,NE,35,0.0,0.0,84,0.00,,,0.00,,2013-08-12 08:02:00,
2013-08-12 04:11:00,80.0,75.0,30.09,NE,36,0.0,0.0,85,0.00,,,0.00,,2013-08-12 08:11:00,
2013-08-12 04:22:00,79.0,74.0,30.09,NE,36,0.0,1.0,85,0.00,,,0.00,,2013-08-12 08:22:00,
2013-08-12 04:33:00,79.0,74.0,30.09,NE,36,0.0,1.0,85,0.00,,,0.00,,2013-08-12 08:33:00,
2013-08-12 04:43:00,79.0,74.0,30.08,NE,35,0.0,0.0,86,0.00,,,0.00,,2013-08-12 08:43:00,
2013-08-12 04:53:00,79.0,74.0,30.08,NE,36,0.0,0.0,86,0.00,,,0.00,,2013-08-12 08:53:00,
2013-08-12 05:02:00,79.0,74.0,30.08,NE,35,0.0,0.0,86,0.00,,,0.00,,2013-08-12 09:02:00,
2013-08-12 05:11:00,79.0,74.0,30.08,NE,35,0.0,0.0,86,0.00,,,0.00,,2013-08-12 09:11:00,
2013-08-12 05:22:00,78.0,74.0,30.08,NE,36,0.0,0.0,87,0.00,,,0.00,,2013-08-12 09:22:00,
2013-08-12 05:32:00,78.0,74.0,30.08,NE,36,0.0,0.0,87,0.00,,,0.00,,2013-08-12 09:32:00,
2013-08-12 05:43:00,78.0,74.0,30.08,NE,36,0.0,0.0,88,0.00,,,0.00,,2013-08-12 09:43:00,
2013-08-12 05:53:00,78.0,74.0,30.08,NE,36,0.0,0.0,89,0.00,,,0.00,,2013-08-12 09:53:00,
2013-08-12 06:02:00,78.0,74.0,30.08,NE,35,0.0,0.0,89,0.00,,,0.00,,2013-08-12 10:02:00,
2013-08-12 06:12:00,77.0,74.0,30.08,NE,36,0.0,0.0,89,0.00,,,0.00,,2013-08-12 10:12:00,
2013-08-12 06:22:00,77.0,74.0,30.09,NE,36,0.0,0.0,90,0.00,,,0.00,,2013-08-12 10:22:00,
2013-08-12 06:32:00,77.0,74.0,30.08,NE,36,0.0,0.0,91,0.00,,,0.00,,2013-08-12 10:32:00,
2013-08-12 06:43:00,77.0,74.0,30.08,NE,35,0.0,0.0,91,0.00,,,0.00,,2013-08-12 10:43:00,
2013-08-12 06:52:00,77.0,74.0,30.08,NE,36,0.0,0.0,92,0.00,,,0.00,,2013-08-12 10:52:00,
2013-08-12 07:02:00,77.0,74.0,30.09,NE,35,0.0,0.0,91,0.00,,,0.00,,2013-08-12 11:02:00,
2013-08-12 07:22:00,76.0,74.0,30.09,NE,35,0.0,0.0,92,0.00,,,0.00,,2013-08-12 11:22:00,
2013-08-12 07:32:00,77.0,74.0,30.09,NE,35,0.0,0.0,92,0.00,,,0.00,,2013-08-12 11:32:00,
2013-08-12 07:42:00,77.0,74.0,30.09,NE,35,0.0,0.0,92,0.00,,,0.00,,2013-08-12 11:42:00,
2013-08-12 07:52:00,78.0,75.0,30.09,NE,35,0.0,0.0,91,0.00,,,0.00,,2013-08-12 11:52:00,
2013-08-12 08:02:00,79.0,76.0,30.09,NE,35,0.0,0.0,90,0.00,,,0.00,,2013-08-12 12:02:00,
2013-08-12 08:11:00,80.0,76.0,30.10,NE,36,0.0,0.0,88,0.00,,,0.00,,2013-08-12 12:11:00,
2013-08-12 08:22:00,81.0,76.0,30.09,NE,36,0.0,0.0,86,0.00,,,0.00,,2013-08-12 12:22:00,
2013-08-12 08:32:00,82.0,77.0,30.10,NE,37,0.0,1.0,84,0.00,,,0.00,,2013-08-12 12:32:00,
2013-08-12 08:43:00,84.0,77.0,30.10,NE,56,0.0,2.0,79,0.00,,,0.00,,2013-08-12 12:43:00,
2013-08-12 08:52:00,83.0,75.0,30.10,NE,51,0.0,2.0,78,0.00,,,0.00,,2013-08-12 12:52:00,
2013-08-12 09:02:00,83.0,76.0,30.10,NNE,22,0.0,1.0,79,0.00,,,0.00,,2013-08-12 13:02:00,
2013-08-12 09:11:00,83.0,77.0,30.10,East,79,0.0,2.0,81,0.00,,,0.00,,2013-08-12 13:11:00,
2013-08-12 09:22:00,84.0,77.0,30.10,East,84,1.0,3.0,80,0.00,,,0.00,,2013-08-12 13:22:00,
2013-08-12 09:33:00,85.0,77.0,30.10,East,87,1.0,4.0,78,0.00,,,0.00,,2013-08-12 13:33:00,
2013-08-12 09:43:00,85.0,77.0,30.10,ENE,66,2.0,6.0,78,0.00,,,0.00,,2013-08-12 13:43:00,
2013-08-12 09:53:00,85.0,77.0,30.10,ENE,66,2.0,6.0,78,0.00,,,0.00,,2013-08-12 13:53:00,
2013-08-12 10:32:00,86.0,77.0,30.10,NE,54,4.0,6.0,74,0.00,,,0.00,,2013-08-12 14:32:00,
2013-08-12 10:42:00,86.0,77.0,30.10,NE,34,3.0,6.0,74,0.00,,,0.00,,2013-08-12 14:42:00,
2013-08-12 12:53:00,90.0,76.0,30.09,North,4,3.0,10.0,64,0.00,,,0.00,,2013-08-12 16:53:00,
2013-08-12 13:02:00,90.0,76.0,30.09,North,4,3.0,10.0,64,0.00,,,0.00,,2013-08-12 17:02:00,
2013-08-12 14:32:00,90.0,75.0,30.07,NE,53,4.0,9.0,61,0.00,,,0.00,,2013-08-12 18:32:00,
2013-08-12 15:43:00,92.0,74.0,30.05,ENE,78,4.0,8.0,56,0.00,,,0.00,,2013-08-12 19:43:00,
2013-08-12 16:42:00,91.0,74.0,30.04,East,89,3.0,9.0,58,0.00,,,0.00,,2013-08-12 20:42:00,
2013-08-12 17:01:00,91.0,75.0,30.04,East,87,2.0,7.0,60,0.00,,,0.00,,2013-08-12 21:01:00,
2013-08-12 17:32:00,90.0,76.0,30.03,East,80,5.0,8.0,64,0.00,,,0.00,,2013-08-12 21:32:00,
2013-08-12 17:43:00,89.0,77.0,30.03,ENE,77,2.0,7.0,67,0.00,,,0.00,,2013-08-12 21:43:00,
2013-08-12 18:11:00,88.0,77.0,30.04,East,89,6.0,10.0,69,0.00,,,0.00,,2013-08-12 22:11:00,
2013-08-12 18:53:00,87.0,76.0,30.04,ESE,108,2.0,6.0,70,0.00,,,0.00,,2013-08-12 22:53:00,
2013-08-12 19:02:00,87.0,76.0,30.04,ENE,77,2.0,8.0,70,0.00,,,0.00,,2013-08-12 23:02:00,
2013-08-12 19:11:00,87.0,76.0,30.04,NE,53,2.0,8.0,70,0.00,,,0.00,,2013-08-12 23:11:00,
2013-08-12 19:22:00,88.0,77.0,30.03,NNE,29,2.0,5.0,69,0.00,,,0.00,,2013-08-12 23:22:00,
2013-08-12 19:54:00,87.0,76.0,30.03,NNE,31,1.0,9.0,71,0.00,,,0.00,,2013-08-12 23:54:00,
2013-08-12 20:12:00,86.0,76.0,30.04,ENE,61,2.0,7.0,72,0.00,,,0.00,,2013-08-13 00:12:00,
2013-08-12 20:24:00,85.0,77.0,30.03,East,84,2.0,5.0,76,0.00,,,0.00,,2013-08-13 00:24:00,
2013-08-12 20:45:00,84.0,76.0,30.03,NE,39,1.0,7.0,76,0.00,,,0.00,,2013-08-13 00:45:00,
2013-08-12 20:54:00,84.0,76.0,30.04,East,80,2.0,5.0,76,0.00,,,0.00,,2013-08-13 00:54:00,
2013-08-12 21:13:00,84.0,76.0,30.05,East,96,1.0,6.0,77,0.00,,,0.00,,2013-08-13 01:13:00,
2013-08-12 21:23:00,84.0,76.0,30.05,ENE,72,1.0,5.0,78,0.00,,,0.00,,2013-08-13 01:23:00,
2013-08-12 21:42:00,83.0,75.0,30.05,ENE,77,1.0,3.0,78,0.00,,,0.00,,2013-08-13 01:42:00,
2013-08-12 21:55:00,83.0,76.0,30.05,ENE,61,0.0,5.0,79,0.00,,,0.00,,2013-08-13 01:55:00,
2013-08-12 22:22:00,83.0,76.0,30.06,East,82,1.0,3.0,80,0.00,,,0.00,,2013-08-13 02:22:00,
2013-08-12 22:43:00,83.0,76.0,30.06,East,82,1.0,4.0,80,0.00,,,0.00,,2013-08-13 02:43:00,
2013-08-12 22:52:00,83.0,77.0,30.07,ESE,105,0.0,4.0,82,0.00,,,0.00,,2013-08-13 02:52:00,
2013-08-12 23:22:00,83.0,77.0,30.07,East,84,0.0,2.0,83,0.00,,,0.00,,2013-08-13 03:22:00,
2013-08-12 23:54:00,83.0,77.0,30.07,East,93,0.0,3.0,83,0.00,,,0.00,,2013-08-13 03:54:00,